Flag for Austria Past Weather in Bruck an der Leitha, Lower Austria, Austria — Yesterday and Last 2 Weeks

Now
79 °F

Partly sunny.


Feels Like: 82 °F
Forecast: 67 / 86 °F
Wind: N/A

Location: Wien / Schwechat-Flughafen

Current Time: Jul 24, 2016 at 8:50:42 PM

Latest Report: Jul 24, 2016 at 8:00 PM


Visibility: 28 mi

Pressure: 30.00 "Hg

Humidity: 67%

Dew Point: 67 °F

Location of Bruck an der LeithaLocation

Past Weather in Bruck an der Leitha — Graph

°F

Bruck an der Leitha Temperature Yesterday

Maximum temperature yesterday: 84 °F (at 5:00 PM)
Minimum temperature yesterday: 67 °F (at 6:00 AM)
Average temperature yesterday: 75 °F

High & Low Weather Summary for the Past Weeks

 TemperatureHumidityPressure
High92 °F (Jul 11, 3:00 PM)97% (Jul 12, 11:00 PM)30.21 "Hg (Jul 12, 11:00 PM)
Low56 °F (Jul 14, 7:00 AM)37% (Jul 11, 3:00 PM)29.77 "Hg (Jul 14, 9:00 AM)
Average70 °F70%30.01 "Hg
* Reported Jul 9 7:00 PM — Jul 24 7:00 PM, Bruck an der Leitha, Weather by CustomWeather, © 2016

Note: Actual official high and low records may vary slightly from our data, if they occured in-between our weather recording intervals... More about our weather records

Advertising

Bruck an der Leitha Weather History for the Previous 24 Hours

Scroll right to see more
 ConditionsComfort  
Time TempWeatherWind HumidityBarometerVisibility
7:00 PM
Sun, Jul 24
81 °FPartly sunny.N/A60%30.00 "Hg22 mi
6:00 PM81 °FPartly sunny.N/A64%30.00 "Hg28 mi
5:00 PM81 °FScattered clouds.N/A60%30.01 "Hg25 mi
4:00 PM82 °FScattered clouds.N/A60%30.01 "Hg19 mi
3:00 PM81 °FScattered clouds.5 mph60%30.03 "Hg14 mi
2:00 PM81 °FScattered clouds.5 mph60%30.03 "Hg17 mi
1:00 PM79 °FPartly sunny.6 mph63%30.04 "Hg14 mi
12:00 PM78 °FPartly sunny.7 mph65%30.04 "Hg13 mi
11:00 AM76 °FPartly sunny.6 mph71%30.05 "Hg19 mi
10:00 AM74 °FPartly sunny.3 mph81%30.04 "Hg12 mi
9:00 AM71 °FPartly sunny.N/A85%30.04 "Hg22 mi
8:00 AM68 °FPartly sunny.N/A92%30.04 "Hg14 mi
7:00 AM68 °FPartly sunny.N/A91%30.04 "Hg22 mi
6:00 AM68 °FRain showers. Partly sunny.5 mph92%30.03 "Hg19 mi
5:00 AM69 °FSprinkles. Overcast.7 mph89%30.03 "Hg5 mi
4:00 AM71 °FOvercast.6 mph81%30.02 "Hg31 mi
3:00 AM74 °FRain showers. Overcast.5 mph81%30.00 "Hg11 mi
2:00 AM71 °FOvercast.N/A88%29.99 "Hg9 mi
1:00 AM71 °FPassing clouds.N/A88%29.98 "Hg10 mi
12:00 AM73 °FPassing clouds.N/A82%29.98 "Hg14 mi
9:00 PM
Sat, Jul 23
77 °FPassing clouds.N/A72%29.97 "Hg19 mi
8:00 PM81 °FScattered clouds.N/A61%29.96 "Hg25 mi
Weather by CustomWeather, © 2016

See weather overviewHow to use our weather pages